Location: *
(32.3300°N, 34.8500°E)
Time: 23:16:47
(UTC+00:00)

Milstar 3 Cent rocket - Pass Details

Date: 22 October 2019
Orbit: 706 x 5147 km, 28.3° (Epoch: 12 November)

Event Time Altitude Azimuth Distance (km) Brightness Sun altitude
Exits shadow 02:51:52 13° 250° (WSW) 2,494 4.1 -12.8°
Maximum altitude 02:56:56 53° 175° (S) 933 2.5 -11.7°
Drops below altitude 10° 03:01:24 10° 98° (E) 2,163 6.0 -10.8°
Sets 03:03:43 0° 93° (E) 3,132 7.5 -10.3°
